[[{"header":{"parameterUnit":"m.s-1","parameterCategory":1,"la1":30.2991,"la2":30.254,"lo1":-89.0895,"lo2":-89.0444,"dy":0.0017,"dx":0.0017,"nx":28,"ny":28,"refTime":"2023-08-24T21:00:00:Z","depth":0,"parameterNumber":2,"parameterNumberName":"U-component_of_WINDS"},"data":[0,0,0,0,0,0,0,0,0,0,0,0,0,0,0,0,0,0,0,0,0,0,0,0,0,0,0,0,0,0,0,0,0,0,0,0,0,0,0,0,0,0,0,0,0,0,0,0,0,0,0,0,0,0,0,0,0,0,3.0533,3.0535,0,3.0689,3.069,3.0692,3.0707,3.0706,3.0704,3.0703,3.0861,3.0866,3.0872,0,0,0,0,0,0,0,0,0,0,0,0,0,3.0247,3.0252,3.0533,3.0535,3.0537,3.0688,3.069,3.0692,3.0708,3.0706,3.0704,3.0702,3.0859,3.0866,3.0873,0,0,0,0,0,0,0,0,0,0,0,0,0,3.0384,3.0254,3.0533,3.0563,3.0567,3.0688,3.069,3.0693,3.0708,3.0706,3.0703,3.0701,3.0857,3.0865,3.0873,3.0975,0,0,3.09,3.0903,0,0,0,0,0,0,0,0,3.0376,3.0394,3.0556,3.0561,3.0566,3.0676,3.0648,3.0787,3.0709,3.0654,3.0703,3.07,3.0801,3.0814,3.0849,3.0982,3.0989,3.09,3.0906,3.0909,3.0912,0,0,0,0,0,0,0,3.0366,3.0388,3.0594,3.0559,3.0565,3.0568,3.0584,3.0674,3.0739,3.0659,3.066,3.0679,3.0803,3.084,3.0852,3.0991,3.09,3.0908,3.0913,3.0916,3.1213,3.1216,0,0,0,0,0,0,3.0352,3.038,3.059,3.0599,3.0463,3.0575,3.0594,3.0643,3.0739,3.0751,3.0681,3.0679,3.0827,3.0842,3.0858,3.0981,3.0909,3.0917,3.0922,3.1211,3.1214,3.1217,0,0,0,0,0,0,3.0345,3.037,3.0583,3.049,3.0517,3.0582,3.0638,3.0647,3.0684,3.0755,3.0766,3.0707,3.0826,3.0846,3.0945,3.0987,3.0921,3.0929,3.1207,3.1212,3.1215,3.1228,0,0,0,0,0,0,3.0337,3.0368,3.0407,3.0491,3.0522,3.0668,3.0641,3.0652,3.0699,3.0698,3.0782,3.0794,3.0825,3.0932,3.0954,3.0997,3.0936,3.1204,3.1209,3.1214,3.1224,3.1232,3.1239,0,0,0,0,0,3.0327,3.0405,3.0409,3.0435,3.0573,3.0671,3.0689,3.0723,3.0703,3.0742,3.0787,3.0791,3.0979,3.0942,3.0966,3.1013,3.1201,3.1208,3.1214,3.1221,3.1231,3.1239,0,0,0,0,0,0,3.0325,3.0417,3.0422,3.053,3.0592,3.0673,3.0724,3.0733,3.0802,3.0799,3.0839,3.0858,3.0954,3.0994,3.0952,3.1115,3.1088,3.1099,3.1085,3.1095,3.1102,3.109,3.0943,0,0,0,0,0,3.0337,3.0409,3.0485,3.0573,3.0604,3.0659,3.0703,3.0724,3.079,3.0816,3.0869,3.0932,3.1006,3.1053,3.1125,3.1231,3.1248,3.1275,3.1282,3.1288,3.1297,3.1354,3.1366,3.1237,3.1237,3.1237,0,0,3.0363,3.0422,3.0465,3.0574,3.0625,3.0697,3.0681,3.0759,3.0813,3.0828,3.0924,3.0965,3.1039,3.1141,3.1189,3.1177,3.1336,3.1296,3.13,3.1306,3.1361,3.1373,3.1384,3.1241,3.1241,3.124,0,0,3.0446,3.0499,3.0577,3.0628,3.0705,3.0741,3.076,3.0839,3.0867,3.0964,3.0977,3.1041,3.1167,3.1218,3.1261,3.1363,3.1368,3.1385,3.1423,3.1478,3.1488,3.1497,3.1532,3.1544,3.1394,3.1394,3.1394,0,3.0468,3.0579,3.0616,3.0693,3.074,3.0758,3.0836,3.0884,3.098,3.1011,3.0997,3.1154,3.1205,3.1319,3.1344,3.1379,3.14,3.1375,3.1484,3.1494,3.1503,3.1536,3.1549,3.1396,3.1396,3.1395,3.1395,0,3.0601,3.0677,3.0731,3.0823,3.0876,3.0953,3.1001,3.105,3.1067,3.1104,3.1202,3.1264,3.1347,3.1376,3.1394,3.1492,3.1482,3.1476,3.1449,3.1516,3.1547,3.156,3.1398,3.1397,3.1397,3.1396,0,0,3.0686,3.0798,3.0816,3.0858,3.0944,3.1003,3.1081,3.1163,3.1203,3.1269,3.1334,3.144,3.1434,3.1482,3.1506,3.1555,3.1629,3.1542,3.1544,3.1554,3.1738,3.1741,3.1755,3.1634,3.1636,3.1638,3.1731,0,3.0777,3.0916,3.0951,3.1069,3.1139,3.1157,3.1225,3.1284,3.1321,3.1385,3.1426,3.1499,3.1487,3.1516,3.1565,3.1609,3.1666,3.1603,3.1693,3.1695,3.1671,3.1772,3.1776,3.186,3.1744,3.1746,3.1748,0,3.0902,3.097,3.1095,3.1171,3.1202,3.1262,3.1338,3.14,3.1468,3.1491,3.1544,3.1563,3.1643,3.1614,3.1724,3.1681,3.172,3.1747,3.1751,3.1759,3.1724,3.178,3.1889,3.19,3.1768,3.1767,3.1765,0,3.0949,3.1072,3.1162,3.1197,3.1289,3.133,3.137,3.1435,3.1482,3.1549,3.1579,3.1655,3.1696,3.1754,3.1792,3.1767,3.1898,3.1873,3.1918,3.1917,3.1943,3.1941,3.2057,3.1973,3.1972,3.1972,3.1972,0,3.1045,3.112,3.1184,3.1239,3.1323,3.1363,3.1445,3.1485,3.1543,3.1606,3.1627,3.1685,3.1733,3.1797,3.1828,3.1913,3.1932,3.1952,3.1959,3.1949,3.1946,3.1973,3.1967,3.1976,3.1975,3.1974,3.1974,0,3.1111,3.1157,3.1256,3.1334,3.1355,3.1414,3.148,3.1534,3.1571,3.165,3.1671,3.1729,3.1806,3.1851,3.1948,3.1968,3.2062,3.2068,3.2039,3.2042,3.2084,3.2078,3.222,3.2239,3.2144,3.2145,3.2146,0,3.1168,3.1226,3.1311,3.1354,3.1394,3.1464,3.1512,3.1553,3.1601,3.1682,3.1725,3.1804,3.1868,3.199,3.204,3.2114,3.212,3.2165,3.2131,3.2119,3.2118,3.2113,3.2118,3.2169,3.217,3.2171,3.2172,0,3.1264,3.1284,3.1351,3.1427,3.1482,3.1544,3.1604,3.1639,3.169,3.1743,3.1822,3.1872,3.197,3.2047,3.2125,3.2165,3.2176,3.2182,3.2196,3.2185,3.2165,3.2174,3.2052,3.2178,3.2177,3.2177,3.2177,3.2176,3.1326,3.1378,3.1445,3.1519,3.1569,3.1625,3.1678,3.1723,3.1789,3.1872,3.1893,3.1975,3.204,3.2146,3.2189,3.2253,3.2245,3.2266,3.2271,3.2275,3.2275,3.2157,3.2268,3.2268,3.2268,3.2267,3.2267,0,3.1421,3.1465,3.1533,3.1617,3.1675,3.1681,3.1749,3.1796,3.1868,3.1929,3.1991,3.2081,3.2155,3.2212,3.2288,3.2328,3.2335,3.2346,3.2343,3.2351,3.2279,3.2258,3.2339,3.2339,3.2339,3.2339,3.2339,3.2339,3.1477,3.1564,3.1591,3.1703,3.1747,3.1827,3.1865,3.1916,3.1964,3.2063,3.2125,3.2162,3.222,3.23,3.2368,3.2383,3.2409,3.2419,3.2434,3.2365,3.2357,3.2349,3.233,3.2425,3.2425,3.2501,3.2502,3.2502]},{"header":{"parameterUnit":"m.s-1","parameterCategory":1,"la1":30.2991,"la2":30.254,"lo1":-89.0895,"lo2":-89.0444,"dy":0.0017,"dx":0.0017,"nx":28,"ny":28,"refTime":"2023-08-24T21:00:00:Z","depth":0,"parameterNumber":3,"parameterNumberName":"V-component_of_WINDS"},"data":[0,0,0,0,0,0,0,0,0,0,0,0,0,0,0,0,0,0,0,0,0,0,0,0,0,0,0,0,0,0,0,0,0,0,0,0,0,0,0,0,0,0,0,0,0,0,0,0,0,0,0,0,0,0,0,0,0,0,3.4413,3.4413,0,3.4388,3.4388,3.4388,3.4309,3.4308,3.4306,3.4304,3.428,3.4281,3.4282,0,0,0,0,0,0,0,0,0,0,0,0,0,3.4393,3.4394,3.4413,3.4413,3.4413,3.4388,3.4388,3.4388,3.431,3.4308,3.4305,3.4303,3.4279,3.4281,3.4282,0,0,0,0,0,0,0,0,0,0,0,0,0,3.4389,3.4394,3.4413,3.4371,3.4367,3.4389,3.4388,3.4388,3.431,3.4308,3.4305,3.4302,3.4279,3.428,3.4282,3.4343,0,0,3.4286,3.4287,0,0,0,0,0,0,0,0,3.4389,3.439,3.4377,3.4374,3.4369,3.4349,3.4372,3.4373,3.4311,3.4332,3.4304,3.4301,3.4305,3.4304,3.4305,3.4342,3.4341,3.4286,3.4287,3.4288,3.4288,0,0,0,0,0,0,0,3.439,3.439,3.4403,3.4377,3.4372,3.4353,3.4349,3.4372,3.4333,3.433,3.4324,3.4322,3.4302,3.4304,3.4304,3.4341,3.4286,3.4288,3.4289,3.4289,3.4425,3.4427,0,0,0,0,0,0,3.4396,3.4391,3.4404,3.4403,3.4373,3.4355,3.4351,3.4358,3.4333,3.4326,3.4324,3.4318,3.4303,3.4303,3.4303,3.4372,3.4288,3.4289,3.429,3.4422,3.4425,3.4428,0,0,0,0,0,0,3.4396,3.4398,3.4405,3.4395,3.4395,3.4359,3.4367,3.4359,3.4361,3.4329,3.4322,3.4333,3.4301,3.4301,3.4333,3.437,3.429,3.4291,3.4419,3.4423,3.4427,3.451,0,0,0,0,0,0,3.4396,3.4398,3.4421,3.4396,3.4396,3.4436,3.4369,3.4361,3.4363,3.4356,3.4335,3.4329,3.4299,3.4332,3.4335,3.437,3.4292,3.4415,3.4421,3.4425,3.4504,3.4517,3.4528,0,0,0,0,0,3.4395,3.4446,3.4423,3.4425,3.4424,3.4439,3.4438,3.4402,3.4367,3.4389,3.4369,3.433,3.4366,3.4336,3.4338,3.4375,3.4413,3.4419,3.4425,3.4499,3.4514,3.4527,0,0,0,0,0,0,3.4477,3.4442,3.4416,3.4461,3.4453,3.4425,3.4453,3.4419,3.4422,3.4414,3.4369,3.4366,3.4404,3.4393,3.436,3.4432,3.4383,3.439,3.4438,3.4452,3.4464,3.4465,3.4294,0,0,0,0,0,3.45,3.4515,3.4484,3.4527,3.4524,3.449,3.4495,3.4467,3.4458,3.4454,3.4436,3.4428,3.4437,3.4444,3.4451,3.4503,3.4496,3.4529,3.4541,3.4551,3.4557,3.4582,3.4596,3.4448,3.4448,3.4448,0,0,3.4549,3.4532,3.4544,3.4543,3.4534,3.455,3.4487,3.4507,3.4519,3.4457,3.4486,3.4473,3.4461,3.4503,3.452,3.4495,3.4596,3.4558,3.4567,3.4567,3.459,3.4604,3.4616,3.4452,3.4452,3.4451,0,0,3.4645,3.4634,3.4667,3.4659,3.4646,3.4622,3.463,3.4607,3.4595,3.4624,3.4577,3.459,3.4608,3.4601,3.46,3.4692,3.4656,3.4696,3.4757,3.4782,3.4793,3.4803,3.4835,3.4847,3.4703,3.4703,3.4703,0,3.4706,3.4729,3.4689,3.4711,3.4712,3.4656,3.4689,3.4683,3.4674,3.4675,3.4647,3.4666,3.4655,3.4693,3.4716,3.4717,3.4724,3.4698,3.4795,3.4805,3.4813,3.4843,3.4855,3.4707,3.4707,3.4706,3.4706,0,3.4804,3.4821,3.4849,3.484,3.4844,3.4872,3.4836,3.4844,3.4817,3.4796,3.4825,3.4809,3.4811,3.4818,3.4792,3.4853,3.4838,3.4803,3.4752,3.4833,3.486,3.4871,3.4714,3.4713,3.4711,3.471,0,0,3.4951,3.4919,3.493,3.4924,3.4905,3.4917,3.4942,3.4943,3.4951,3.4946,3.4966,3.4981,3.4948,3.4947,3.4919,3.4941,3.5014,3.4903,3.4902,3.4923,3.5079,3.5104,3.5118,3.499,3.4992,3.4994,3.508,0,3.5041,3.5081,3.5046,3.5093,3.5107,3.5054,3.5076,3.5066,3.5048,3.5057,3.5036,3.5047,3.5004,3.5002,3.5022,3.5001,3.5044,3.4995,3.5007,3.5008,3.5011,3.5133,3.516,3.5241,3.509,3.5092,3.5093,0,3.5151,3.5149,3.5198,3.5174,3.5179,3.5199,3.5197,3.5206,3.5194,3.5179,3.5178,3.5143,3.5166,3.5117,3.5147,3.5114,3.5117,3.5108,3.511,3.5109,3.5055,3.5134,3.5266,3.5278,3.511,3.5108,3.5107,0,3.5251,3.5262,3.5292,3.5289,3.5263,3.5278,3.5268,3.5253,3.5256,3.5254,3.5255,3.5257,3.5257,3.5259,3.5226,3.5194,3.526,3.5209,3.5247,3.5248,3.5263,3.5262,3.5397,3.5268,3.5267,3.5267,3.5267,0,3.5354,3.5385,3.5336,3.5355,3.5388,3.5347,3.5381,3.5365,3.5353,3.5367,3.5322,3.5336,3.5292,3.5302,3.5277,3.5305,3.5306,3.5294,3.5286,3.5297,3.5298,3.5298,3.5291,3.527,3.527,3.5269,3.5268,0,3.5471,3.544,3.5468,3.5441,3.5435,3.5461,3.5437,3.5453,3.5431,3.5449,3.5451,3.5417,3.5426,3.5394,3.5398,3.538,3.5422,3.5406,3.5426,3.542,3.546,3.5457,3.5598,3.5614,3.5476,3.5477,3.5479,0,3.5539,3.5561,3.5536,3.5542,3.5534,3.5544,3.5546,3.5507,3.5511,3.5499,3.5516,3.5521,3.5523,3.554,3.5515,3.5518,3.5501,3.555,3.5501,3.551,3.55,3.5498,3.55,3.556,3.5562,3.5563,3.5564,0,3.5661,3.5644,3.5648,3.5647,3.5651,3.5649,3.5643,3.5651,3.5608,3.5615,3.5623,3.5625,3.5628,3.5633,3.5631,3.562,3.5585,3.558,3.5589,3.56,3.561,3.5603,3.5452,3.5577,3.5576,3.5575,3.5574,3.5574,3.5754,3.5771,3.5755,3.5762,3.5753,3.5749,3.5762,3.5742,3.5748,3.5747,3.5723,3.5736,3.5723,3.5715,3.5708,3.5717,3.5694,3.5707,3.5711,3.5714,3.572,3.5609,3.5717,3.5716,3.5716,3.5716,3.5715,0,3.5873,3.586,3.5866,3.5859,3.5864,3.583,3.5822,3.5829,3.584,3.5831,3.5833,3.5842,3.5847,3.5823,3.5825,3.5837,3.5821,3.5838,3.5836,3.5834,3.5742,3.5733,3.5851,3.5851,3.5851,3.5851,3.5851,3.5851,3.5935,3.5961,3.5943,3.5964,3.5951,3.5963,3.5961,3.5957,3.5948,3.596,3.5964,3.5948,3.5932,3.5932,3.5935,3.5928,3.593,3.5953,3.5941,3.5854,3.5841,3.5828,3.582,3.5954,3.5955,3.6032,3.6033,3.6033]}]]